This is the latest recevied weather packets stored in our database for station/object IK2ILW-6. If no packets are shown the sender has not sent any weather packets the latest 10 day(s).
| Time | Temp. | Humidity | Pressure | Rain* | Wind** | Luminosity | Snow |
|---|---|---|---|---|---|---|---|
| 1778152283 | 3.89° C | 94% | 1014.1 hPa | 1.02 mm | - | 123 W/m² | - |
| 1778151988 | 3.89° C | 93% | 1014.1 hPa | 0 mm | - | 98 W/m² | - |
| 1778151691 | 3.89° C | 93% | 1014.1 hPa | 0 mm | - | 91 W/m² | - |
| 1778151395 | 3.89° C | 92% | 1014.1 hPa | 0 mm | - | 290 W/m² | - |
| 1778151084 | 3.89° C | 92% | 1014 hPa | 0 mm | - | 360 W/m² | - |
| 1778150787 | 4.44° C | 93% | 1014 hPa | 0 mm | - | 246 W/m² | - |
| 1778150491 | 4.44° C | 95% | 1014.1 hPa | 0 mm | - | 167 W/m² | - |
| 1778150197 | 3.89° C | 96% | 1014.1 hPa | 0 mm | - | 153 W/m² | - |
| 1778149900 | 3.89° C | 95% | 1014.1 hPa | 0 mm | - | 258 W/m² | - |
| 1778149585 | 3.89° C | 95% | 1014.1 hPa | 0 mm | - | 65 W/m² | - |
| 1778149290 | 3.89° C | 95% | 1014 hPa | 0 mm | - | 95 W/m² | - |
| 1778148993 | 3.89° C | 95% | 1014 hPa | 0 mm | - | 151 W/m² | - |
| 1778148697 | 3.89° C | 94% | 1014 hPa | 0 mm | - | 197 W/m² | - |
| 1778148401 | 3.89° C | 94% | 1014.1 hPa | 0 mm | - | 213 W/m² | - |
| 1778148090 | 3.89° C | 94% | 1014 hPa | 0 mm | - | 279 W/m² | - |
| 1778147793 | 3.89° C | 95% | 1014 hPa | 0 mm | - | 139 W/m² | - |
| 1778147496 | 3.89° C | 92% | 1013.9 hPa | 0 mm | - | 144 W/m² | - |
| 1778147200 | 3.89° C | 92% | 1013.9 hPa | 0 mm | - | 146 W/m² | - |
| 1778146883 | 3.89° C | 92% | 1013.9 hPa | 0 mm | - | 241 W/m² | - |
| 1778146588 | 3.89° C | 93% | 1013.9 hPa | 0 mm | - | 366 W/m² | - |
| 1778146291 | 3.89° C | 92% | 1013.8 hPa | 0 mm | - | 255 W/m² | - |
| 1778145995 | 4.44° C | 92% | 1013.8 hPa | 0 mm | - | 299 W/m² | - |
| 1778145698 | 4.44° C | 96% | 1013.8 hPa | 0 mm | - | 480 W/m² | - |
| 1778145402 | 3.89° C | 96% | 1013.8 hPa | 1.02 mm | - | 313 W/m² | - |
| 1778145086 | 3.33° C | 96% | 1013.8 hPa | 1.02 mm | - | 271 W/m² | - |
* Rain latest hour (hover to see other rain measurements)
** Current wind speed in m/s (hover to see current wind gust speed)